Location: ?????????
(54.7630°N, 39.4991°E)
Time: 19:55:50
(UTC+00:00)

Cosmos 2242 Rocket - Pass Details

Date: 14 April 2026
Orbit: 612 x 646 km, 82.5° (Epoch: 19 May)

Event Time Altitude Azimuth Distance (km) Brightness Sun altitude
Rises 18:23:26 0° 345° (NNW) 2,956 8.1 -15.5°
Reaches altitude 10° 18:25:44 10° 341° (NNW) 2,037 7.2 -15.8°
Maximum altitude 18:30:08 54° 265° (W) 771 4.2 -16.2°
Enters shadow 18:33:44 15° 190° (S) 1,718 5.5 -16.6°
